Powrót do katalogu

STARLINK-38114

AktywnyŁącznośćVLEO
NORAD 100017·PAYLOAD·🇺🇸 United States

Wystrzelony Jul 14, 2026 z Vandenberg Space Force Base

Loading…

Następne Przeloty (najbliższe 24 godziny)

TLE

ŚwieżeSource: Space-Track

Epoka: Sep 14, 2026, 14:20 UTC

1 A0017U 26160S   26257.59760792  .00212626  00000-0  12406-2 0  9994
2 A0017  70.0020 211.5751 0003620 268.9051  91.1734 15.77641991 11066

Śledź STARLINK-38114 w czasie rzeczywistym z AllMySat

Download on the App Store